Terminal Aerodrome Forecast
Issued by NWS San Angelo, TX

Home | Current Version | Previous Version | Text Only | Print | Product List | Glossary On
Versions: 1 2 3 4 5 6 7 8 9 10 11 12 13 14 15
000
FTUS44 KSJT 221100 RRA
TAFSJT
TAF
KSJT 221141Z 2212/2312 14007KT P6SM BKN020 WS020/18035KT
     FM221400 17010KT 4SM -SHRA OVC015
     FM221800 18009KT P6SM VCSH BKN020
     FM222200 21008KT P6SM BKN100=

USA.gov is the U.S. government's official web portal to all federal, state and local government web resources and services.